Theta_e
321 318 317 319 317 317 317 319 327 326 329 330 329 328 326 323 322 323 321 322 323 320
320 319 317 318 319 315 321 317 320 324 326 328 328 326 325 321 321 322 322 322 322 320
317 317 316 315 315 316 317 318 317 319 323 324 325 323 323 320 321 320 319 318 320 321
314 313 313 312 313 314 315 315 315 315 319 321 320 320 318 319 318 317 318 319 319 319
310 310 310 308 309 311 311 313 313 314 316 315 315 316 316 315 316 315 315 316 317 317
307 308 308 308 308 309 312 311 310 311 311 312 311 313 314 313 314 315 315 316 315 316
306 306 306 307 308 307 309 308 309 310 308 307 308 310 311 312 312 314 314 315 316 316
304 305 305 306 306 306 307 308 308 308 308 308 306 308 310 310 311 312 313 314 314 315
302 303 303 305 304 304 303 306 306 306 306 306 307 304 304 307 310 310 311 311 312 313
302 301 302 303 303 303 302 303 304 305 305 305 307 302 301 304 308 308 309 310 311 310
301 301 303 303 302 302 303 302 302 304 305 305 307 302 300 301 308 308 309 310 311 313
302 301 302 301 302 302 301 301 302 304 305 305 306 301 299 302 307 307 308 310 314 314
302 302 302 303 302 302 303 303 304 304 305 305 306 302 298 301 305 305 308 311 313 307
304 304 305 304 302 302 302 302 303 304 305 306 306 306 299 298 304 304 304 307 311 315
Wind_Speed
14 11 12 13 12 12 13 13 13 14 13 16 16 12 9 8 7 4 6 7 7 8
15 15 14 16 15 14 14 14 15 14 13 13 14 14 10 9 8 7 7 7 8 9
16 16 17 17 20 19 17 17 17 18 14 12 12 13 11 9 10 10 8 7 9 10
16 18 18 18 19 17 18 18 19 19 17 13 12 10 10 12 12 12 12 11 11 13
16 16 15 15 16 18 19 18 15 17 17 15 14 12 12 14 13 14 13 13 13 14
16 15 13 15 16 17 17 15 14 17 16 13 13 12 13 15 15 15 15 14 14 15
17 17 16 15 17 17 18 15 16 16 14 12 13 15 16 16 16 16 15 15 15 15
16 16 17 17 16 16 17 17 14 16 15 14 14 14 15 17 17 15 16 15 15 16
16 15 15 15 14 13 14 16 15 16 15 13 10 12 12 15 14 13 14 14 15 13
15 15 15 14 14 13 14 13 14 13 13 15 16 10 10 11 13 14 15 16 15 11
15 15 14 13 13 13 12 12 11 13 13 12 12 12 12 12 15 16 18 17 13 13
14 13 13 12 13 11 10 10 11 12 13 13 15 12 16 15 16 16 17 16 16 14
13 13 14 14 11 10 10 12 10 12 14 16 15 15 12 12 11 13 12 13 14 15
13 13 13 10 8 11 9 10 11 12 11 13 12 12 11 12 11 10 8 9 9 8
Wind_Direction
279 284 293 283 301 295 292 292 293 286 258 240 243 226 223 236 239 257 264 285 286 295
275 279 288 291 287 285 279 275 270 279 270 246 238 232 231 240 249 261 256 273 273 276
284 286 290 295 291 286 280 277 277 275 264 248 232 230 227 244 239 248 262 269 278 280
298 298 298 291 287 287 289 282 273 268 267 237 235 224 235 243 256 256 259 263 266 274
306 299 292 290 291 286 278 277 277 286 270 248 241 229 234 244 251 254 252 254 259 266
285 284 289 286 287 288 287 281 275 281 273 271 254 248 248 250 250 249 252 253 254 258
292 290 288 288 287 286 286 280 275 264 261 268 276 273 258 253 250 248 247 249 254 258
286 282 281 282 281 276 280 276 273 268 254 242 239 246 248 258 253 250 248 248 251 248
280 278 276 274 268 268 274 272 271 275 272 265 258 256 235 240 256 256 253 254 256 253
281 278 275 274 272 266 263 265 271 266 257 264 262 259 214 202 237 250 255 257 257 248
280 278 275 274 272 269 267 261 261 265 259 250 252 231 240 221 245 255 255 253 249 242
281 277 278 275 274 272 271 264 260 265 261 265 266 237 218 216 253 249 247 244 242 243
281 278 277 278 277 277 273 273 266 259 253 256 264 254 217 213 251 251 246 242 243 226
287 281 282 288 279 280 273 271 275 277 274 273 270 271 256 230 238 238 241 239 239 232